Regional Weather Roundup
Issued by NWS

Current Version | Previous Version | Text Only | Print | Product List | Glossary On
Versions: 1 2 3 4 5 6 7 8 9 10 11 12 13 14 15 16 17 18 19 20 21 22 23 24 25 26 27 28 29 30 31 32 33 34 35 36 37 38 39 40 41 42 43 44 45 46 47 48 49 50
000
ASUS45 KPSR 221110
RWRAZ

ARIZONA HOURLY REGIONAL WEATHER ROUNDUP
NATIONAL WEATHER SERVICE PHOENIX AZ
400 AM MST SUN JAN 22 2017

NOTE: FAIR INDICATES FEW OR NO CLOUDS BELOW 12,000 FEET WITH NO
SIGNIFICANT WEATHER AND/OR OBSTRUCTIONS TO VISIBILITY.

AZZ001>003-036-221200-
NORTHWEST ARIZONA

CITY           SKY/WX    TMP DP  RH WIND       PRES   REMARKS
BULLHEAD CITY  CLOUDY    48  41  76 CALM      30.09S
KINGMAN        CLOUDY    39  24  55 SE8       30.08S WCI  33
$$

AZZ004>008-015-016-018-221200-
NORTH CENTRAL ARIZONA

CITY           SKY/WX    TMP DP  RH WIND       PRES   REMARKS
GRAND CANYON   CLOUDY     6   2  83 CALM      30.08R
WILLIAMS       CLOUDY    16  14  93 S9        30.08R WCI   4
PRESCOTT       CLOUDY    29  26  89 SE6       30.10S WCI  23
FLAGSTAFF      CLOUDY    21  20  96 SW3       30.07R
PAYSON         CLEAR     28  28 100 CALM      30.17R
PAGE           MOCLDY    32  23  69 SE6       30.02F WCI  26
$$

AZZ009>014-017-221200-
NORTHEAST ARIZONA

CITY           SKY/WX    TMP DP  RH WIND       PRES   REMARKS
WINSLOW        CLEAR     26  23  88 E3        30.08F
SAINT JOHNS    CLEAR     26  20  77 SW12      30.08S WCI  16
SHOW LOW       FLURRIES  19  18  93 S9        30.09F WCI   9
$$

AZZ023-221200-
GREATER PHOENIX AREA

CITY           SKY/WX    TMP DP  RH WIND       PRES   REMARKS
PHOENIX        CLOUDY    46  39  76 E10       30.13R
BUCKEYE        CLOUDY    46  41  81 E7        30.14F
LUKE AFB       CLOUDY    43  43 100 N5        30.12S
DEER VALLEY    CLOUDY    44  37  76 NE5       30.14R
SCOTTSDALE     CLOUDY    43  37  79 CALM      30.15R
MESA-GATEWAY   MOCLDY    39  36  87 E7        30.17R WCI  34
$$

AZZ027-028-221200-
SOUTHWEST MARICOPA COUNTY AND PINAL COUNTY

CITY           SKY/WX    TMP DP  RH WIND       PRES   REMARKS
CASA GRANDE    CLOUDY    40  36  86 NE5       30.16R
GILA BEND      CLOUDY    47  40  75 SE7       30.12R
$$

AZZ503-504-507>509-221200-
SOUTHEAST ARIZONA

CITY           SKY/WX    TMP DP  RH WIND       PRES   REMARKS
TUCSON         CLEAR     38  32  79 SE8       30.17R WCI  32
DAVIS-MONTHAN  CLOUDY    37  34  89 SE7       30.16R WCI  31
NOGALES        CLEAR     30  27  88 NE3       30.15R
SIERRA VISTA   CLEAR     31  26  83 CALM      30.15S
DOUGLAS        CLEAR     28  25  88 CALM      30.16R
SAFFORD        CLEAR     33  30  88 E3        30.12F
$$

AZZ020-021-025-026-031-221200-
SOUTHWEST ARIZONA

CITY           SKY/WX    TMP DP  RH WIND       PRES   REMARKS
YUMA           CLOUDY    49  42  77 N3        30.11R
$$

CAZ031-033-041-043-047-048-061-221200-
SOUTHERN CALIFORNIA

CITY           SKY/WX    TMP DP  RH WIND       PRES   REMARKS
DOWNTOWN L.A.  CLOUDY    54  49  83 E3        30.10S
L.A. AIRPORT   CLOUDY    52  49  89 SE5       30.11R
SAN DIEGO      CLOUDY    54  44  69 E5        30.12F
BURBANK        LGT RAIN  50  47  89 SE12      30.08F
ONTARIO        LGT RAIN  49  45  86 SE3       30.10F
RIVERSIDE      RAIN      49  45  86 CALM      30.11S
PALM SPRINGS   CLOUDY    52  43  71 NE5       30.09S
EL CENTRO NAS  CLOUDY    51  41  68 CALM      30.10F
IMPERIAL       CLOUDY    51  40  65 NE3       30.09S
BLYTHE         CLOUDY    51  43  74 S5        30.09R
NEEDLES        CLOUDY    51  40  65 CALM      30.08R
$$

NVZ020-UTZ003-221200-
SOUTHERN NEVADA-UTAH

CITY           SKY/WX    TMP DP  RH WIND       PRES   REMARKS
LAS VEGAS      CLOUDY    49  31  49 S6        30.02S
SALT LAKE CITY MOCLDY    29  24  82 SE9       29.97F WCI  20
$$

NMZ009-TXZ055-221200-
NEW MEXICO-WEST TEXAS

CITY           SKY/WX    TMP DP  RH WIND       PRES   REMARKS
ALBUQUERQUE    CLOUDY    35  21  56 SW5       30.02R WCI  31
EL PASO        CLEAR     39  25  57 W15       30.06F WCI  31
$$


........................KEY........................
SKY/WX - SKY CONDITION/WEATHER
TMP    - TEMPERATURE IN FAHRENHEIT
DP     - DEW POINT IN FAHRENHEIT
RH     - RELATIVE HUMIDITY IN PERCENT
WIND   - DIRECTION AND SPEED IN MILES PER HOUR (MPH)
VRB    - VARIABLE WIND DIRECTION
PRES   - MEAN SEA LEVEL PRESSURE IN INCHES OF MERCURY
         F - FALLING PRESSURE   R - RISING PRESSURE
         S - STEADY PRESSURE
VSB    - VISIBILITY IN MILES
HX     - HEAT INDEX IN FAHRENHEIT
WCI    - WIND CHILL INDEX IN FAHRENHEIT
TC     - TEMPERATURE IN CELSIUS WHICH IS ALSO KNOWN AS
         TEMPERATURE IN CENTIGRADE
AFB    - AIR FORCE BASE
         LUKE AFB IS LUKE AIR FORCE BASE
         DAVIS-MONTHAN IS DAVIS-MONTHAN AIR FORCE BASE
NAS    - NAVAL AIR STATION
         EL CENTRO NAS IS EL CENTRO NAVAL AIR STATION
N/A    - NOT AVAILABLE




USA.gov is the U.S. government's official web portal to all federal, state and local government web resources and services.